Location: Fensholt
(55.9856°N, 10.0808°E)
Time: 20:24:52
(UTC+00:00)

Cosmos 2322 Rocket - Pass Details

Date: 07 June 2020
Orbit: 833 x 850 km, 71.0° (Epoch: 11 July)

Event Time Altitude Azimuth Distance (km) Brightness Sun altitude
Exits shadow 01:29:26 - 190° (S) 2,798 4.3 -6.5°
Reaches altitude 10° 01:30:24 10° 188° (S) 2,443 4.0 -6.4°
Maximum altitude 01:35:47 50° 114° (ESE) 1,058 2.8 -6.0°
Drops below altitude 10° 01:41:11 10° 41° (NE) 2,456 6.4 -5.6°
Sets 01:43:41 0° 36° (NE) 3,394 8.3 -5.4°
